| time (UTC) | temp C | wind direction | speed KPH | gust KPH | rain 1hr cm | rain 24hr cm | rain mn cm | humidity % | barometer mb |
| 20260505013844 | 13 | 249 | 4.8 | 14.5 | 0.00 | 0.00 | 0.00 | 58 | 1008.2 |
| 20260505013343 | 13 | 279 | 4.8 | 17.7 | 0.00 | 0.00 | 0.00 | 57 | 1008.2 |
| 20260505012843 | 13 | 279 | 4.8 | 12.9 | 0.00 | 0.00 | 0.00 | 57 | 1008.1 |
| 20260505012335 | 13 | 282 | 3.2 | 12.9 | 0.00 | 0.00 | 0.00 | 56 | 1008.0 |
| 20260505012229 | 14 | 268 | 3.2 | 14.5 | 0.00 | 0.00 | 0.00 | 56 | 1007.9 |
| 20260505012009 | 14 | 319 | 3.2 | 12.9 | 0.00 | 0.00 | 0.00 | 56 | 1007.9 |
| 20260505011537 | 14 | 291 | 4.8 | 14.5 | 0.00 | 0.00 | 0.00 | 55 | 1007.8 |
| 20260505011400 | 14 | 268 | 3.2 | 14.5 | 0.00 | 0.00 | 0.00 | 56 | 1007.9 |
| 20260505010344 | 14 | 267 | 4.8 | 16.1 | 0.00 | 0.00 | 0.00 | 54 | 1007.8 |
| 20260505005833 | 15 | 275 | 4.8 | 16.1 | 0.00 | 0.00 | 0.00 | 54 | 1007.7 |
| 20260505005318 | 15 | 288 | 4.8 | 16.1 | 0.00 | 0.00 | 0.00 | 53 | 1007.6 |
| 20260505005309 | 15 | 271 | 4.8 | 17.7 | 0.00 | 0.00 | 0.00 | 52 | 1007.5 |
| 20260505004315 | 15 | 299 | 4.8 | 19.3 | 0.00 | 0.00 | 0.00 | 52 | 1007.4 |
| 20260505003829 | 15 | 316 | 4.8 | 19.3 | 0.00 | 0.00 | 0.00 | 52 | 1007.3 |
| 20260505003317 | 15 | 255 | 4.8 | 19.3 | 0.00 | 0.00 | 0.00 | 51 | 1007.2 |
| 20260505002827 | 15 | 298 | 6.4 | 19.3 | 0.00 | 0.00 | 0.00 | 51 | 1007.0 |
| 20260505002734 | 15 | 346 | 4.8 | 17.7 | 0.00 | 0.00 | 0.00 | 50 | 1006.9 |
| 20260505002040 | 15 | 311 | 4.8 | 17.7 | 0.00 | 0.00 | 0.00 | 50 | 1006.7 |
| 20260505001900 | 15 | 320 | 4.8 | 16.1 | 0.00 | 0.00 | 0.00 | 50 | 1006.8 |
| 20260505001040 | 16 | 307 | 4.8 | 17.7 | 0.00 | 0.00 | 0.00 | 49 | 1006.6 |
| 20260505000320 | 16 | 140 | 4.8 | 16.1 | 0.00 | 0.00 | 0.00 | 49 | 1006.5 |
| 20260504235817 | 16 | 294 | 4.8 | 16.1 | 0.00 | 0.00 | 0.00 | 49 | 1006.3 |
| 20260504235504 | 16 | 270 | 3.2 | 12.9 | 0.00 | 0.00 | 0.00 | 48 | 1006.3 |
| 20260504235313 | 16 | 260 | 4.8 | 16.1 | 0.00 | 0.00 | 0.00 | 49 | 1006.4 |
| 20260504234308 | 16 | 280 | 4.8 | 20.9 | 0.00 | 0.00 | 0.00 | 48 | 1006.2 |
| 20260504233807 | 16 | 101 | 6.4 | 20.9 | 0.00 | 0.00 | 0.00 | 47 | 1006.1 |
| 20260504233259 | 16 | 332 | 6.4 | 17.7 | 0.00 | 0.00 | 0.00 | 47 | 1006.1 |
| 20260504232804 | 17 | 261 | 4.8 | 20.9 | 0.00 | 0.00 | 0.00 | 46 | 1005.9 |
| 20260504232533 | 17 | 1 | 6.4 | 20.9 | 0.00 | 0.00 | 0.00 | 46 | 1005.8 |
| 20260504231808 | 17 | 221 | 6.4 | 24.1 | 0.00 | 0.00 | 0.00 | 46 | 1005.8 |
| 20260504231319 | 17 | 306 | 8.0 | 24.1 | 0.00 | 0.00 | 0.00 | 45 | 1005.8 |
| 20260504230810 | 17 | 327 | 9.7 | 24.1 | 0.00 | 0.00 | 0.00 | 45 | 1005.6 |
| 20260504230302 | 17 | 302 | 8.0 | 24.1 | 0.00 | 0.00 | 0.00 | 44 | 1005.5 |
| 20260504225806 | 17 | 333 | 6.4 | 20.9 | 0.00 | 0.00 | 0.00 | 44 | 1005.5 |
| 20260504225306 | 18 | 268 | 6.4 | 19.3 | 0.00 | 0.00 | 0.00 | 42 | 1005.5 |
| 20260504224746 | 18 | 294 | 6.4 | 19.3 | 0.00 | 0.00 | 0.00 | 43 | 1005.3 |
| 20260504224228 | 18 | 262 | 4.8 | 22.5 | 0.00 | 0.00 | 0.00 | 42 | 1005.3 |
| 20260504224002 | 18 | 276 | 4.8 | 22.5 | 0.00 | 0.00 | 0.00 | 42 | 1005.3 |
| 20260504223605 | 18 | 247 | 6.4 | 24.1 | 0.00 | 0.00 | 0.00 | 42 | 1005.2 |
| 20260504223539 | 18 | 353 | 8.0 | 24.1 | 0.00 | 0.00 | 0.00 | 40 | 1005.2 |
| 20260504223326 | 18 | 247 | 6.4 | 24.1 | 0.00 | 0.00 | 0.00 | 42 | 1005.2 |
| 20260504222224 | 18 | 259 | 8.0 | 24.1 | 0.00 | 0.00 | 0.00 | 39 | 1005.1 |
| 20260504221728 | 18 | 281 | 6.4 | 25.7 | 0.00 | 0.00 | 0.00 | 40 | 1005.1 |
| 20260504221228 | 19 | 192 | 4.8 | 25.7 | 0.00 | 0.00 | 0.00 | 40 | 1005.0 |
| 20260504220740 | 19 | 319 | 6.4 | 27.4 | 0.00 | 0.00 | 0.00 | 38 | 1005.0 |
| 20260504220348 | 20 | 42 | 6.4 | 20.9 | 0.00 | 0.00 | 0.00 | 36 | 1005.0 |
| 20260504220244 | 19 | 234 | 6.4 | 27.4 | 0.00 | 0.00 | 0.00 | 37 | 1005.0 |
| 20260504215219 | 20 | 200 | 6.4 | 20.9 | 0.00 | 0.00 | 0.00 | 37 | 1005.0 |
| 20260504214733 | 20 | 253 | 4.8 | 20.9 | 0.00 | 0.00 | 0.00 | 36 | 1005.0 |
| 20260504214220 | 20 | 283 | 3.2 | 11.3 | 0.00 | 0.00 | 0.00 | 34 | 1005.0 |
| 20260504213733 | 20 | 35 | 3.2 | 20.9 | 0.00 | 0.00 | 0.00 | 32 | 1004.9 |
| 20260504213215 | 20 | 222 | 4.8 | 20.9 | 0.00 | 0.00 | 0.00 | 33 | 1004.9 |
| 20260504213119 | 20 | 312 | 4.8 | 20.9 | 0.00 | 0.00 | 0.00 | 31 | 1004.9 |
| 20260504212803 | 20 | 2 | 4.8 | 20.9 | 0.00 | 0.00 | 0.00 | 33 | 1004.9 |
| 20260504211927 | 21 | 333 | 6.4 | 16.1 | 0.00 | 0.00 | 0.00 | 31 | 1004.9 |
| 20260504211720 | 20 | 33 | 4.8 | 17.7 | 0.00 | 0.00 | 0.00 | 32 | 1004.9 |
| 20260504211233 | 21 | 333 | 6.4 | 17.7 | 0.00 | 0.00 | 0.00 | 31 | 1004.9 |
| 20260504210453 | 21 | 73 | 6.4 | 16.1 | 0.00 | 0.00 | 0.00 | 31 | 1004.8 |
| 20260504210217 | 21 | 355 | 6.4 | 17.7 | 0.00 | 0.00 | 0.00 | 31 | 1004.8 |
| 20260504205150 | 21 | 52 | 4.8 | 16.1 | 0.00 | 0.00 | 0.00 | 32 | 1004.9 |
| 20260504204705 | 21 | 348 | 4.8 | 20.9 | 0.00 | 0.00 | 0.00 | 31 | 1004.7 |
| 20260504204427 | 21 | 36 | 6.4 | 20.9 | 0.00 | 0.00 | 0.00 | 32 | 1004.7 |
| 20260504203929 | 21 | 252 | 8.0 | 20.9 | 0.00 | 0.00 | 0.00 | 32 | 1004.8 |
| 20260504203743 | 21 | 177 | 8.0 | 20.9 | 0.00 | 0.00 | 0.00 | 31 | 1004.9 |
| 20260504202911 | 21 | 342 | 8.0 | 29.0 | 0.00 | 0.00 | 0.00 | 32 | 1004.9 |
| 20260504202709 | 21 | 57 | 6.4 | 29.0 | 0.00 | 0.00 | 0.00 | 31 | 1004.8 |
| 20260504201651 | 21 | 13 | 9.7 | 37.0 | 0.00 | 0.00 | 0.00 | 32 | 1004.9 |
| 20260504201228 | 21 | 26 | 8.0 | 37.0 | 0.00 | 0.00 | 0.00 | 31 | 1004.9 |
| 20260504200650 | 21 | 327 | 4.8 | 38.6 | 0.00 | 0.00 | 0.00 | 32 | 1005.0 |
| 20260504200221 | 21 | 285 | 6.4 | 38.6 | 0.00 | 0.00 | 0.00 | 33 | 1005.0 |
| 20260504195753 | 21 | 48 | 8.0 | 19.3 | 0.00 | 0.00 | 0.00 | 29 | 1005.1 |
| 20260504194722 | 21 | 121 | 8.0 | 19.3 | 0.00 | 0.00 | 0.00 | 31 | 1005.1 |
| 20260504194206 | 21 | 8 | 8.0 | 27.4 | 0.00 | 0.00 | 0.00 | 31 | 1005.2 |
| 20260504193700 | 20 | 25 | 6.4 | 27.4 | 0.00 | 0.00 | 0.00 | 31 | 1005.2 |
| 20260504193131 | 21 | 294 | 8.0 | 29.0 | 0.00 | 0.00 | 0.00 | 29 | 1005.0 |
| 20260504192643 | 20 | 18 | 8.0 | 29.0 | 0.00 | 0.00 | 0.00 | 29 | 1005.1 |
| 20260504192128 | 20 | 320 | 8.0 | 29.0 | 0.00 | 0.00 | 0.00 | 30 | 1005.0 |
| 20260504191643 | 20 | 307 | 9.7 | 29.0 | 0.00 | 0.00 | 0.00 | 30 | 1005.0 |
| 20260504191142 | 20 | 354 | 8.0 | 29.0 | 0.00 | 0.00 | 0.00 | 31 | 1005.1 |
| 20260504190653 | 20 | 1 | 8.0 | 22.5 | 0.00 | 0.00 | 0.00 | 30 | 1005.1 |
| 20260504190138 | 20 | 336 | 8.0 | 19.3 | 0.00 | 0.00 | 0.00 | 30 | 1005.2 |
| 20260504185840 | 21 | 5 | 6.4 | 19.3 | 0.00 | 0.00 | 0.00 | 30 | 1005.3 |
| 20260504185728 | 21 | 15 | 6.4 | 19.3 | 0.00 | 0.00 | 0.00 | 30 | 1005.4 |
| 20260504184745 | 21 | 275 | 8.0 | 35.4 | 0.00 | 0.00 | 0.00 | 31 | 1005.4 |
| 20260504184701 | 20 | 46 | 8.0 | 19.3 | 0.00 | 0.00 | 0.00 | 29 | 1005.4 |
| 20260504183907 | 20 | 352 | 6.4 | 35.4 | 0.00 | 0.00 | 0.00 | 30 | 1005.4 |
| 20260504183646 | 20 | 352 | 6.4 | 35.4 | 0.00 | 0.00 | 0.00 | 30 | 1005.4 |
| 20260504183118 | 20 | 6 | 9.7 | 35.4 | 0.00 | 0.00 | 0.00 | 29 | 1005.5 |
| 20260504182631 | 20 | 198 | 9.7 | 35.4 | 0.00 | 0.00 | 0.00 | 29 | 1005.2 |
| 20260504182421 | 20 | 15 | 8.0 | 25.7 | 0.00 | 0.00 | 0.00 | 30 | 1005.5 |
| 20260504182218 | 20 | 260 | 9.7 | 25.7 | 0.00 | 0.00 | 0.00 | 29 | 1005.4 |
| 20260504181115 | 21 | 205 | 6.4 | 22.5 | 0.00 | 0.00 | 0.00 | 30 | 1005.7 |
| 20260504180604 | 20 | 331 | 6.4 | 27.4 | 0.00 | 0.00 | 0.00 | 33 | 1005.6 |
| 20260504180123 | 20 | 27 | 8.0 | 27.4 | 0.00 | 0.00 | 0.00 | 30 | 1005.7 |
| 20260504175611 | 20 | 277 | 8.0 | 25.7 | 0.00 | 0.00 | 0.00 | 30 | 1005.6 |
| 20260504175112 | 20 | 3 | 8.0 | 30.6 | 0.00 | 0.00 | 0.00 | 29 | 1005.5 |
| 20260504174734 | 20 | 277 | 8.0 | 30.6 | 0.00 | 0.00 | 0.00 | 34 | 1005.8 |
| 20260504174618 | 20 | 11 | 6.4 | 30.6 | 0.00 | 0.00 | 0.00 | 30 | 1005.7 |
| 20260504173949 | 20 | 9 | 9.7 | 30.6 | 0.00 | 0.00 | 0.00 | 34 | 1005.9 |
| 20260504173943 | 20 | 306 | 9.7 | 27.4 | 0.00 | 0.00 | 0.00 | 31 | 1005.8 |
| 20260504173745 | 20 | 338 | 8.0 | 30.6 | 0.00 | 0.00 | 0.00 | 31 | 1005.8 |
| 20260504172321 | 20 | 12 | 8.0 | 19.3 | 0.00 | 0.00 | 0.00 | 31 | 1005.8 |
| 20260504172313 | 20 | 61 | 6.4 | 32.2 | 0.00 | 0.00 | 0.00 | 31 | 1005.9 |
| 20260504172157 | 20 | 298 | 9.7 | 24.1 | 0.00 | 0.00 | 0.00 | 29 | 1005.9 |
| 20260504170618 | 20 | 346 | 6.4 | 32.2 | 0.00 | 0.00 | 0.00 | 32 | 1005.8 |
| 20260504170119 | 20 | 289 | 8.0 | 32.2 | 0.00 | 0.00 | 0.00 | 32 | 1005.7 |
| 20260504160134 | 18 | 26 | 9.7 | 27.4 | 0.00 | 0.00 | 0.00 | 36 | 1006.9 |
| 20260504151035 | 17 | 163 | 11.3 | 17.7 | 0.00 | 0.00 | 0.00 | 38 | 1007.3 |
| 20260504150250 | 17 | 347 | 9.7 | 27.4 | 0.00 | 0.00 | 0.00 | 36 | 1007.2 |
| 20260504141211 | 16 | 1 | 4.8 | 16.1 | 0.00 | 0.00 | 0.00 | 42 | 1007.5 |
| 20260504140653 | 16 | 331 | 4.8 | 12.9 | 0.00 | 0.00 | 0.00 | 43 | 1007.6 |
| 20260504110417 | 8 | 279 | 3.2 | 11.3 | 0.00 | 0.00 | 0.00 | 56 | 1008.5 |
| 20260504081838 | 7 | 275 | 1.6 | 6.4 | 0.00 | 0.00 | 0.00 | 52 | 1008.1 |
| 20260504081336 | 7 | 353 | 1.6 | 6.4 | 0.00 | 0.00 | 0.00 | 54 | 1008.2 |
| 20260504080830 | 7 | 309 | 1.6 | 6.4 | 0.00 | 0.00 | 0.00 | 53 | 1008.2 |
| 20260504080325 | 7 | 275 | 1.6 | 6.4 | 0.00 | 0.00 | 0.00 | 55 | 1008.1 |
| 20260504070311 | 7 | 288 | 1.6 | 4.8 | 0.00 | 0.00 | 0.00 | 57 | 1008.0 |
| 20260504050745 | 7 | 327 | 1.6 | 6.4 | 0.00 | 0.00 | 0.00 | 54 | 1008.1 |
| 20260504050257 | 7 | 329 | 1.6 | 6.4 | 0.00 | 0.00 | 0.00 | 55 | 1008.1 |
| 20260504045749 | 7 | 281 | 1.6 | 6.4 | 0.00 | 0.00 | 0.00 | 54 | 1008.1 |
| 20260504045250 | 6 | 1 | 1.6 | 12.9 | 0.00 | 0.00 | 0.00 | 54 | 1008.1 |
| 20260504045103 | 6 | 0 | 3.2 | 12.9 | 0.00 | 0.00 | 0.00 | 55 | 1008.1 |
| 20260504045040 | 6 | 343 | 3.2 | 12.9 | 0.00 | 0.00 | 0.00 | 54 | 1008.1 |
| 20260504043754 | 6 | 242 | 1.6 | 12.9 | 0.00 | 0.00 | 0.00 | 55 | 1008.0 |
| 20260504043249 | 6 | 358 | 1.6 | 6.4 | 0.00 | 0.00 | 0.00 | 54 | 1008.2 |
| 20260504042739 | 6 | 6 | 1.6 | 6.4 | 0.00 | 0.00 | 0.00 | 54 | 1008.1 |
| 20260504042240 | 6 | 352 | 1.6 | 6.4 | 0.00 | 0.00 | 0.00 | 55 | 1008.0 |
| 20260504041741 | 6 | 326 | 1.6 | 6.4 | 0.00 | 0.00 | 0.00 | 55 | 1008.1 |
| 20260504041238 | 6 | 358 | 1.6 | 6.4 | 0.00 | 0.00 | 0.00 | 55 | 1008.0 |
| 20260504040739 | 6 | 0 | 1.6 | 4.8 | 0.00 | 0.00 | 0.00 | 55 | 1007.9 |
| 20260504040235 | 6 | 333 | 1.6 | 4.8 | 0.00 | 0.00 | 0.00 | 55 | 1007.9 |
| 20260504035743 | 6 | 294 | 1.6 | 6.4 | 0.00 | 0.00 | 0.00 | 54 | 1007.8 |
| 20260504035234 | 6 | 313 | 1.6 | 6.4 | 0.00 | 0.00 | 0.00 | 53 | 1007.8 |
| 20260504034736 | 6 | 322 | 1.6 | 6.4 | 0.00 | 0.00 | 0.00 | 53 | 1007.8 |
| 20260504034232 | 6 | 8 | 1.6 | 6.4 | 0.00 | 0.00 | 0.00 | 53 | 1007.8 |
| 20260504033730 | 6 | 3 | 1.6 | 6.4 | 0.00 | 0.00 | 0.00 | 53 | 1007.7 |
| 20260504033231 | 6 | 2 | 1.6 | 6.4 | 0.00 | 0.00 | 0.00 | 53 | 1007.7 |
| 20260504032738 | 6 | 344 | 1.6 | 8.0 | 0.00 | 0.00 | 0.00 | 54 | 1007.7 |
| 20260504032720 | 6 | 296 | 1.6 | 8.0 | 0.00 | 0.00 | 0.00 | 55 | 1007.7 |
| 20260504032710 | 6 | 281 | 1.6 | 8.0 | 0.00 | 0.00 | 0.00 | 55 | 1007.6 |
| 20260504031240 | 6 | 310 | 1.6 | 8.0 | 0.00 | 0.00 | 0.00 | 55 | 1007.6 |
| 20260504030737 | 6 | 265 | 1.6 | 4.8 | 0.00 | 0.00 | 0.00 | 56 | 1007.6 |
| 20260504030234 | 6 | 341 | 1.6 | 6.4 | 0.00 | 0.00 | 0.00 | 55 | 1007.5 |
| 20260504025730 | 5 | 348 | 1.6 | 6.4 | 0.00 | 0.00 | 0.00 | 55 | 1007.5 |
| 20260504025231 | 5 | 238 | 1.6 | 6.4 | 0.00 | 0.00 | 0.00 | 56 | 1007.5 |
| 20260504024726 | 5 | 237 | 0.0 | 6.4 | 0.00 | 0.00 | 0.00 | 56 | 1007.5 |
| 20260504024227 | 5 | 237 | 0.0 | 6.4 | 0.00 | 0.00 | 0.00 | 55 | 1007.5 |
| 20260504023723 | 5 | 235 | 0.0 | 6.4 | 0.00 | 0.00 | 0.00 | 55 | 1007.5 |
| 20260504023222 | 5 | 6 | 0.0 | 1.6 | 0.00 | 0.00 | 0.00 | 55 | 1007.5 |
| 20260504022722 | 5 | 6 | 0.0 | 1.6 | 0.00 | 0.00 | 0.00 | 55 | 1007.4 |
| 20260504022222 | 6 | 6 | 0.0 | 3.2 | 0.00 | 0.00 | 0.00 | 54 | 1007.5 |
| 20260504022040 | 6 | 6 | 0.0 | 3.2 | 0.00 | 0.00 | 0.00 | 54 | 1007.4 |
| 20260504021615 | 6 | 6 | 0.0 | 3.2 | 0.00 | 0.00 | 0.00 | 53 | 1007.4 |
| 20260504020717 | 6 | 6 | 0.0 | 3.2 | 0.00 | 0.00 | 0.00 | 53 | 1007.4 |
| 20260504020217 | 6 | 11 | 0.0 | 3.2 | 0.00 | 0.00 | 0.00 | 53 | 1007.4 |
| 20260504020032 | 6 | 12 | 0.0 | 3.2 | 0.00 | 0.00 | 0.00 | 53 | 1007.4 |
| 20260504015214 | 6 | 12 | 0.0 | 1.6 | 0.00 | 0.00 | 0.00 | 54 | 1007.4 |
| 20260504014710 | 6 | 12 | 0.0 | 1.6 | 0.00 | 0.00 | 0.00 | 52 | 1007.4 |